Temperature
30 31 32 32 32 32 32 32 31 30 30 30 30 30 30 29 28 28 27 26 26 25 24 24 23 23 23 22 22 22 21 21 20 20 20 19 19 19 19 19 18 18 18 18
29 31 31 31 31 32 32 32 31 31 30 31 30 30 29 28 28 27 26 26 25 24 24 23 23 22 22 22 21 21 21 21 20 20 19 19 19 19 18 18 18 18 18 18
28 30 30 30 31 31 32 32 32 30 30 30 30 29 29 28 27 26 26 25 24 24 23 23 22 22 22 21 21 21 20 20 20 19 19 19 18 18 18 18 18 18 18 17
28 28 27 30 32 32 32 31 32 31 31 30 29 28 28 27 27 26 25 24 24 23 23 23 22 22 21 21 21 20 20 20 19 19 19 18 18 18 18 17 17 17 17 17
27 27 28 30 32 32 31 30 31 30 30 29 28 28 27 26 26 25 24 24 23 23 22 22 22 21 21 20 20 20 20 19 19 19 18 18 18 17 17 17 17 17 17 17
26 26 27 29 31 31 31 29 30 29 29 28 28 27 26 25 24 24 23 23 22 22 22 21 21 21 20 20 19 19 19 19 19 18 18 18 18 17 17 17 17 16 16 16
26 26 28 29 30 30 28 27 28 28 27 27 26 26 25 24 23 23 22 22 21 21 21 21 20 20 20 19 19 19 18 18 18 18 17 17 17 17 17 16 16 16 16 16
26 25 26 28 28 27 25 26 26 26 26 25 25 24 24 23 22 22 21 21 21 20 20 20 20 19 19 19 18 18 18 17 17 17 17 17 17 16 16 16 16 16 15 15
26 26 25 26 26 25 25 25 25 25 25 24 24 24 23 22 21 21 21 20 20 20 19 19 19 19 18 18 18 18 17 17 17 17 16 16 16 16 16 16 15 15 15 15
25 25 25 25 24 24 24 24 24 24 24 24 23 23 22 21 21 20 20 19 19 19 18 18 18 18 18 17 17 17 17 16 16 16 16 16 15 15 15 15 15 15 15 15
24 24 25 24 24 24 24 24 24 23 23 23 23 22 21 20 20 19 19 19 18 18 18 17 17 17 17 17 17 16 16 16 16 16 16 15 15 15 15 15 15 15 15 15
23 23 23 23 23 23 23 23 22 22 22 22 21 21 20 19 19 19 18 18 18 17 17 17 17 17 16 16 16 16 16 16 16 15 15 15 15 15 15 15 14 14 14 14
22 22 22 22 22 22 22 22 21 21 21 20 20 19 19 19 18 18 18 17 17 17 16 16 16 16 16 16 16 16 16 15 15 15 15 15 15 14 14 14 14 14 14 14
20 21 21 21 21 21 21 21 20 20 20 19 19 19 18 18 17 17 17 17 16 16 16 16 16 16 16 16 16 15 15 15 15 15 15 14 14 14 14 14 14 14 14 14
20 20 20 20 20 20 20 20 19 19 19 18 18 18 17 17 17 16 16 16 16 15 15 15 15 15 15 15 15 15 15 15 15 15 14 14 14 14 14 14 14 14 14 14
19 19 19 19 19 19 19 18 18 18 18 17 17 17 17 16 16 16 15 15 15 15 15 15 15 15 15 15 15 15 15 15 14 14 14 14 14 14 14 14 14 14 14 14
18 19 19 19 18 18 18 18 17 17 17 16 16 16 16 16 15 15 15 15 15 15 14 14 14 14 14 14 14 14 14 14 14 14 14 14 14 14 14 14 14 14 14 14
18 18 18 18 18 17 17 17 17 17 16 16 16 16 15 15 15 15 14 14 14 14 14 14 14 14 14 14 14 14 14 14 14 14 14 14 14 14 14 14 14 14 13 13
17 17 17 17 17 17 16 16 16 16 16 15 15 15 15 15 14 14 14 14 14 13 13 13 13 13 13 13 13 14 14 14 14 13 13 13 13 13 14 14 14 13 13 13
17 17 17 17 16 16 16 16 16 15 15 15 15 15 14 14 14 14 14 13 13 14 13 13 13 13 13 13 13 13 13 13 13 13 13 13 13 13 13 13 13 13 13 12
16 16 16 16 16 16 15 15 15 15 15 15 14 14 14 14 13 13 13 13 13 13 13 13 13 13 13 13 13 13 13 13 13 13 13 13 13 13 13 13 13 12 12 12
15 15 15 15 15 15 15 14 14 14 14 14 14 14 13 13 13 13 13 13 13 13 13 13 13 13 13 13 13 13 13 13 13 13 13 13 13 12 12 12 12 12 12 11
14 14 14 14 14 14 14 14 14 14 14 13 13 13 13 13 13 13 13 13 13 13 13 13 13 13 13 12 12 13 12 12 12 12 12 12 12 12 12 12 12 11 11 11
13 13 13 13 13 13 13 13 13 13 13 13 13 13 13 13 13 13 13 13 13 12 12 12 12 12 12 12 12 12 12 12 12 12 12 12 12 12 12 11 11 11 11 11
13 13 13 13 13 13 13 13 13 13 13 13 13 13 13 13 13 13 12 12 12 12 12 12 12 11 11 11 11 11 11 11 12 12 12 11 11 11 11 11 11 10 10 10
12 13 13 13 13 13 13 13 13 13 13 13 12 12 12 12 12 12 12 12 12 12 11 11 11 11 11 11 11 11 11 11 11 11 11 11 11 10 10 10 10 10 10 9
12 13 13 13 13 13 13 13 13 13 12 12 12 12 12 12 12 12 12 12 12 11 11 11 11 11 11 11 11 11 11 11 11 11 11 10 10 10 10 10 9 9 9 9
Wind_Speed
15 16 14 12 13 15 15 12 10 6 5 5 2 2 5 6 6 6 5 5 5 5 5 4 4 4 4 5 5 5 6 6 6 6 5 4 4 4 4 4 5 4 3 3
15 17 16 14 15 16 14 12 11 8 7 4 1 2 4 4 5 5 5 4 4 4 4 4 4 3 3 3 4 4 4 4 4 5 5 4 4 4 4 4 3 3 3 3
15 15 16 17 15 14 11 10 9 8 6 4 2 2 3 4 5 4 3 3 3 2 3 3 4 3 3 3 3 4 4 4 4 4 4 4 4 3 3 3 3 3 3 3
14 13 17 13 10 10 10 8 6 3 3 3 3 2 2 3 4 3 3 3 2 2 2 3 3 4 3 3 3 4 4 4 3 3 4 3 3 3 3 2 3 3 3 3
11 15 16 13 9 8 8 6 4 2 0 1 2 2 3 3 3 3 3 2 2 2 2 2 1 2 3 3 3 4 4 3 3 3 4 4 3 3 2 2 2 2 2 2
12 14 14 8 6 5 7 7 1 1 1 1 0 2 1 3 3 3 3 2 2 1 1 2 2 2 3 3 3 3 3 3 4 4 4 4 4 3 2 2 2 2 2 2
16 15 11 6 6 6 8 2 3 3 2 2 2 2 3 3 3 3 3 3 2 1 2 2 2 2 2 2 2 2 2 2 3 3 4 4 3 3 3 2 2 2 3 2
14 16 10 4 4 2 2 4 4 3 3 3 2 3 2 3 3 2 3 3 3 2 2 3 2 2 2 2 2 3 2 3 3 2 3 4 3 3 3 3 3 3 3 3
8 6 1 3 3 2 2 2 3 3 2 1 1 1 2 2 2 2 2 3 3 4 4 3 2 2 2 2 3 4 4 3 3 3 2 2 3 3 3 2 2 2 2 2
5 4 1 1 3 4 3 2 3 2 1 1 1 1 2 2 2 1 2 2 3 3 3 3 3 3 3 3 3 4 4 3 3 3 3 3 2 2 2 1 1 1 1 1
7 5 4 1 2 3 4 4 3 2 2 2 1 1 1 2 2 2 2 2 2 3 3 3 3 3 3 3 3 3 3 3 3 3 4 3 3 2 2 1 1 1 1 1
4 3 3 3 4 4 4 4 3 2 2 2 1 1 2 2 2 2 2 2 2 2 3 3 2 2 2 2 3 3 3 2 2 3 3 4 4 3 4 3 2 2 2 2
5 6 4 5 5 4 3 2 2 2 1 1 1 2 1 2 2 2 2 2 2 2 2 3 3 2 2 2 3 2 2 1 1 2 3 3 3 3 3 2 2 2 2 3
5 6 6 5 5 4 3 2 2 1 1 1 0 1 1 1 1 2 2 2 2 2 2 2 3 2 2 3 3 2 2 2 2 2 2 2 2 3 4 4 3 2 1 3
5 5 6 5 4 3 3 2 2 1 0 0 0 1 1 1 1 1 2 2 2 2 2 2 2 2 2 3 3 2 2 1 1 1 2 2 2 3 3 3 3 3 3 2
7 6 5 4 3 3 3 3 2 2 1 0 1 1 1 1 1 1 1 1 2 2 1 1 1 1 2 2 3 2 2 1 2 2 2 2 2 2 1 2 2 3 2 2
7 6 5 4 3 3 3 3 3 1 1 0 1 0 1 1 1 1 1 2 1 1 1 1 2 2 2 2 2 3 3 3 3 3 2 1 1 1 1 1 1 1 2 3
7 6 5 4 3 3 3 3 3 1 1 1 1 1 1 1 1 0 1 1 2 1 1 1 1 1 2 2 2 2 2 3 3 2 1 1 2 2 2 2 1 1 1 2
7 6 5 4 4 4 4 4 3 2 2 3 2 1 1 1 1 1 2 2 2 2 2 2 2 2 2 2 3 3 3 3 2 2 2 2 3 3 3 2 1 1 2 2
5 5 4 4 4 4 3 3 2 2 2 2 2 1 1 2 2 1 1 1 2 1 2 2 3 2 3 2 3 3 3 3 3 2 2 3 3 3 3 2 2 2 2 2
3 4 4 3 3 3 3 2 2 2 2 2 2 2 2 2 2 2 2 2 1 1 2 2 2 2 2 2 4 5 3 3 2 2 2 3 3 3 2 1 1 1 1 1
3 4 3 3 2 2 2 2 2 2 2 2 3 3 3 3 3 3 2 2 2 2 3 3 2 1 1 3 4 3 3 2 3 2 2 2 2 2 2 1 1 1 0 0
3 3 3 3 2 2 2 2 1 2 2 3 3 3 3 2 2 3 2 2 2 3 2 2 3 3 1 2 3 2 2 2 3 2 2 2 2 2 1 1 1 1 0 0
3 3 3 3 2 2 1 2 2 1 2 2 2 2 2 2 2 1 1 3 4 4 2 3 3 2 1 2 2 2 2 2 2 2 2 1 1 1 1 1 1 1 1 1
3 3 3 3 3 2 2 2 2 2 2 2 2 2 2 2 2 1 2 4 4 4 3 3 3 2 2 3 2 2 2 2 1 1 1 1 1 1 1 1 1 1 1 1
4 4 4 4 3 2 2 3 2 2 1 1 1 1 1 1 2 1 2 4 4 3 2 3 4 4 3 3 2 2 2 2 1 1 0 0 0 0 1 1 1 1 1 2
4 4 3 3 2 3 3 2 2 1 1 2 1 1 1 1 1 1 1 2 2 2 2 2 3 3 3 3 2 2 2 2 2 1 1 0 0 0 0 0 1 1 1 1
Wind_Direction
262 266 268 253 249 246 247 258 265 259 249 247 231 137 125 130 140 143 138 139 135 134 136 141 146 162 178 184 184 188 186 191 191 190 193 188 196 201 201 205 212 204 206 201
263 262 263 262 259 257 246 243 245 242 242 232 201 107 117 132 145 143 147 146 138 136 146 155 162 176 179 185 181 175 183 187 175 179 187 190 196 197 201 200 206 205 202 190
266 262 262 253 247 254 254 251 245 242 229 208 177 158 151 156 146 144 149 134 128 139 158 168 175 171 176 176 169 165 169 171 169 178 187 193 196 190 203 205 203 199 189 183
262 262 255 256 252 247 253 262 266 240 192 183 133 99 96 121 130 135 133 133 132 145 150 169 179 172 163 163 163 167 168 176 175 177 182 177 180 184 193 195 194 189 186 186
260 254 250 257 256 238 241 252 277 277 187 137 126 143 108 90 95 121 120 109 122 145 156 135 134 152 154 160 159 168 173 177 177 181 178 176 184 180 178 183 188 187 171 167
253 260 259 251 262 277 256 238 275 26 71 92 33 211 114 81 77 83 89 97 105 124 113 124 126 129 150 161 155 162 174 178 174 171 173 173 176 173 171 178 178 179 179 174
245 253 255 285 293 271 247 252 15 33 54 56 48 38 81 82 83 98 105 102 97 110 112 100 106 124 134 148 157 152 151 156 163 170 169 158 159 161 161 174 173 182 186 178
239 247 250 333 294 304 29 35 22 30 59 66 57 75 75 93 103 108 118 114 114 110 106 100 105 125 137 139 125 115 117 125 128 137 160 155 158 165 171 175 178 191 193 179
242 244 48 19 41 41 43 30 347 343 30 72 95 123 119 109 104 114 96 104 100 103 95 98 120 144 150 123 116 121 122 122 120 119 116 128 145 153 163 176 196 191 189 184
264 211 211 66 47 7 348 333 308 332 343 313 259 177 140 139 125 106 91 108 107 108 105 89 89 101 120 116 108 115 126 135 142 137 129 117 120 126 131 149 187 185 193 180
257 268 269 296 346 330 334 330 329 333 303 304 273 190 162 152 140 127 109 105 111 116 110 98 92 103 108 119 130 139 146 152 151 139 131 121 111 95 120 106 153 199 175 147
262 303 301 303 322 317 320 314 319 329 338 332 297 132 133 130 109 114 127 114 113 120 116 110 102 106 100 119 137 146 155 165 171 161 147 146 142 126 64 91 111 125 115 120
313 319 305 305 323 325 321 322 339 359 18 350 56 111 127 121 115 126 143 142 154 151 135 126 122 122 116 127 146 155 159 168 175 163 152 160 164 159 154 126 109 123 143 142
318 320 314 314 320 336 332 331 330 348 27 68 83 105 136 143 151 149 143 149 150 143 142 143 140 139 137 137 143 167 187 182 188 179 171 174 179 181 181 180 178 168 174 182
309 303 294 295 313 327 326 315 306 309 7 83 144 162 176 170 158 144 141 154 141 145 150 147 139 133 135 146 153 171 203 188 204 220 191 176 198 206 198 183 179 166 165 180
289 282 279 283 293 305 305 301 292 280 274 218 187 187 144 129 125 131 141 143 152 167 149 147 148 150 163 174 172 176 173 198 216 225 209 182 200 212 222 197 186 171 161 153
273 267 264 266 267 282 287 284 277 280 300 258 113 146 155 151 159 167 177 178 168 159 152 162 186 174 183 193 209 208 192 191 207 222 201 191 222 226 233 234 194 199 165 154
260 260 261 265 271 271 278 281 286 293 306 285 232 218 199 192 205 178 173 176 179 183 188 185 179 180 191 200 230 241 221 207 214 226 216 234 253 246 227 210 213 190 140 166
255 252 256 258 268 264 258 261 264 252 247 227 207 202 213 219 192 203 206 188 187 205 192 153 176 204 216 207 231 232 234 222 217 223 224 224 242 253 249 237 236 207 207 207
251 252 257 251 255 258 253 256 247 246 245 236 223 216 230 233 232 226 206 230 233 213 172 157 172 208 230 224 241 242 242 236 235 233 232 240 249 252 249 232 220 225 226 219
261 261 260 251 255 262 262 252 233 229 231 220 214 232 241 238 233 235 234 238 181 141 162 166 197 214 231 254 239 239 238 239 244 247 244 248 253 254 258 241 236 236 215 245
273 269 270 268 267 271 276 271 248 233 231 227 224 223 219 220 226 232 242 247 192 158 186 187 182 165 265 262 246 237 237 243 241 239 235 238 249 248 242 243 251 242 187 53
287 285 286 288 282 271 262 262 250 228 223 225 218 202 212 230 234 229 231 227 179 152 187 166 140 132 170 245 258 251 250 253 255 252 249 252 253 249 234 248 265 293 348 328
273 280 275 276 272 248 255 254 255 245 220 211 206 198 213 223 224 235 167 117 117 130 127 107 108 128 212 240 256 269 272 267 262 264 274 291 303 317 344 317 314 345 9 355
254 256 252 252 244 225 214 222 233 231 221 221 212 198 218 223 218 225 136 129 131 144 149 149 156 206 236 248 245 256 275 293 314 327 328 350 344 352 352 355 9 349 16 45
240 243 246 248 251 233 219 211 216 222 215 212 218 203 199 178 167 159 142 148 153 163 176 166 178 208 225 241 247 244 250 248 246 213 186 52 24 15 9 19 358 356 49 59
235 236 233 234 236 229 218 206 202 210 209 195 193 180 161 153 146 151 130 133 152 183 183 179 187 200 206 220 227 234 250 259 260 255 184 177 107 316 342 30 6 45 60 68
Height
1464 1458 1455 1457 1458 1456 1459 1461 1469 1471 1472 1469 1466 1467 1469 1473 1477 1480 1483 1486 1489 1491 1493 1496 1498 1500 1503 1504 1506 1507 1508 1509 1510 1511 1513 1514 1515 1516 1516 1517 1517 1517 1518 1518
1468 1459 1456 1458 1455 1454 1453 1454 1460 1464 1468 1463 1466 1468 1471 1474 1477 1480 1483 1486 1488 1490 1492 1494 1496 1498 1499 1501 1503 1504 1505 1506 1507 1508 1509 1511 1512 1513 1513 1514 1514 1515 1515 1515
1473 1461 1459 1464 1454 1453 1452 1449 1454 1463 1464 1462 1464 1468 1471 1474 1477 1480 1482 1485 1487 1489 1490 1492 1493 1495 1497 1498 1499 1501 1502 1503 1504 1505 1506 1507 1509 1510 1510 1511 1512 1512 1513 1513
1473 1472 1481 1458 1442 1444 1448 1449 1450 1454 1457 1461 1465 1469 1471 1474 1477 1480 1482 1484 1486 1487 1488 1490 1491 1493 1494 1495 1496 1497 1499 1500 1501 1502 1503 1504 1505 1506 1507 1508 1509 1509 1510 1510
1474 1474 1467 1452 1443 1444 1450 1455 1452 1455 1458 1462 1465 1468 1472 1475 1477 1480 1481 1483 1484 1486 1487 1488 1489 1490 1491 1492 1493 1494 1495 1496 1498 1499 1500 1501 1502 1503 1504 1505 1506 1507 1507 1507
1474 1478 1475 1458 1445 1445 1449 1459 1455 1456 1459 1463 1465 1469 1474 1476 1477 1479 1480 1481 1483 1484 1485 1485 1486 1488 1489 1489 1490 1491 1492 1494 1495 1496 1497 1497 1498 1500 1501 1502 1503 1504 1504 1505
1473 1474 1461 1451 1446 1448 1463 1465 1458 1459 1462 1465 1468 1471 1475 1475 1477 1478 1479 1480 1481 1482 1483 1484 1484 1486 1486 1487 1488 1489 1490 1491 1492 1493 1494 1495 1496 1497 1499 1500 1501 1502 1502 1503
1468 1472 1468 1453 1451 1457 1462 1461 1461 1462 1464 1467 1470 1472 1474 1475 1476 1478 1478 1479 1480 1480 1481 1482 1483 1484 1484 1485 1486 1487 1488 1489 1489 1490 1492 1492 1493 1495 1496 1497 1498 1499 1500 1500
1458 1462 1458 1457 1457 1460 1461 1463 1464 1464 1466 1468 1470 1471 1473 1475 1476 1477 1478 1479 1479 1479 1480 1481 1482 1482 1483 1484 1484 1485 1486 1486 1487 1488 1489 1490 1491 1492 1493 1495 1496 1497 1498 1498
1457 1456 1457 1458 1459 1462 1463 1464 1465 1465 1466 1467 1469 1470 1472 1474 1476 1477 1477 1478 1478 1479 1479 1479 1480 1481 1481 1482 1483 1483 1484 1485 1486 1487 1488 1489 1490 1491 1492 1493 1494 1495 1496 1496
1456 1457 1458 1459 1460 1462 1463 1463 1464 1465 1466 1467 1468 1469 1471 1473 1474 1475 1476 1477 1477 1477 1477 1478 1479 1479 1479 1480 1481 1482 1483 1484 1485 1486 1486 1487 1488 1489 1491 1492 1493 1494 1494 1494
1458 1458 1459 1461 1461 1462 1462 1464 1464 1465 1465 1466 1467 1468 1470 1472 1473 1474 1475 1475 1476 1476 1476 1476 1477 1477 1478 1479 1480 1481 1482 1483 1484 1485 1485 1486 1487 1488 1489 1490 1491 1492 1493 1493
1459 1459 1460 1460 1460 1461 1462 1463 1464 1465 1465 1466 1467 1468 1469 1470 1471 1473 1473 1474 1474 1475 1475 1475 1475 1476 1476 1477 1478 1480 1481 1482 1483 1483 1483 1485 1486 1486 1488 1489 1489 1490 1491 1491
1461 1460 1460 1461 1461 1462 1462 1463 1464 1465 1465 1466 1467 1468 1469 1469 1470 1471 1472 1472 1473 1473 1474 1474 1474 1474 1475 1476 1477 1479 1480 1482 1482 1483 1483 1484 1485 1486 1487 1487 1487 1488 1489 1489
1461 1462 1462 1461 1462 1462 1463 1463 1464 1464 1465 1466 1467 1467 1468 1468 1469 1470 1471 1471 1472 1472 1473 1473 1473 1474 1474 1475 1476 1478 1479 1480 1481 1482 1482 1483 1484 1485 1485 1485 1486 1486 1486 1487
1461 1461 1461 1461 1461 1462 1463 1463 1463 1464 1464 1465 1466 1466 1467 1467 1468 1468 1469 1470 1470 1471 1471 1471 1471 1472 1474 1475 1475 1477 1478 1479 1479 1481 1481 1482 1482 1483 1484 1484 1484 1484 1485 1485
1460 1460 1460 1461 1461 1462 1463 1463 1463 1463 1464 1464 1464 1465 1466 1466 1466 1467 1467 1468 1469 1469 1469 1470 1470 1471 1472 1473 1475 1476 1476 1477 1478 1479 1480 1480 1481 1482 1482 1483 1483 1483 1483 1483
1459 1459 1460 1460 1461 1461 1462 1463 1463 1463 1464 1463 1464 1464 1465 1465 1465 1465 1466 1466 1467 1467 1468 1468 1468 1469 1471 1472 1473 1474 1475 1476 1477 1477 1478 1478 1479 1479 1480 1480 1481 1481 1481 1481
1457 1458 1459 1460 1461 1461 1461 1462 1462 1462 1463 1463 1463 1463 1464 1464 1464 1464 1464 1464 1465 1465 1466 1467 1468 1468 1469 1471 1472 1473 1474 1474 1475 1475 1476 1476 1476 1477 1478 1478 1479 1479 1479 1480
1456 1457 1458 1459 1460 1460 1460 1461 1461 1461 1462 1462 1462 1462 1462 1463 1463 1463 1462 1463 1463 1464 1464 1465 1466 1467 1468 1469 1470 1471 1472 1471 1472 1473 1474 1474 1475 1475 1476 1476 1477 1477 1478 1478
1455 1456 1457 1458 1458 1459 1459 1459 1459 1459 1460 1460 1460 1460 1461 1461 1461 1461 1460 1461 1461 1462 1463 1464 1465 1465 1466 1467 1468 1469 1470 1470 1470 1471 1471 1472 1472 1473 1473 1474 1474 1475 1475 1476
1455 1456 1456 1457 1457 1457 1458 1458 1458 1458 1458 1458 1458 1458 1459 1459 1459 1459 1459 1460 1460 1460 1461 1463 1463 1464 1465 1465 1466 1468 1468 1468 1468 1468 1468 1469 1470 1470 1471 1472 1473 1473 1473 1473
1454 1455 1455 1455 1455 1456 1456 1456 1456 1455 1455 1456 1456 1456 1457 1457 1458 1458 1457 1458 1458 1459 1459 1460 1461 1462 1464 1464 1465 1466 1466 1466 1467 1466 1467 1467 1467 1468 1468 1469 1470 1470 1470 1471
1453 1453 1454 1454 1454 1454 1454 1454 1454 1453 1453 1454 1454 1454 1455 1455 1456 1456 1456 1456 1456 1457 1458 1459 1460 1460 1462 1463 1464 1464 1464 1464 1465 1465 1465 1465 1465 1466 1466 1467 1467 1467 1468 1468
1452 1452 1452 1452 1452 1452 1452 1452 1452 1452 1452 1452 1453 1453 1454 1454 1454 1454 1454 1454 1455 1456 1456 1457 1459 1459 1461 1462 1462 1462 1462 1463 1463 1463 1464 1464 1464 1464 1464 1465 1465 1465 1465 1465
1450 1450 1450 1450 1450 1450 1451 1451 1451 1451 1451 1451 1451 1452 1452 1453 1453 1453 1454 1454 1454 1455 1456 1456 1457 1458 1459 1459 1460 1461 1461 1461 1461 1461 1461 1461 1462 1462 1463 1463 1463 1463 1463 1463
1448 1448 1448 1449 1449 1449 1450 1450 1450 1450 1450 1450 1451 1451 1451 1451 1452 1452 1453 1453 1453 1454 1455 1455 1456 1456 1457 1458 1459 1459 1459 1459 1459 1459 1460 1460 1460 1461 1461 1461 1461 1461 1461 1460